Погода в Лубнах

Украина / Полтавская область     50°01′06″N   32°59′18″E
темп.,
°C
ветер,
м/с
пор.,
м/с
влажн.,
%
обл.,
%
осадки,
мм/ч
давл.,
гПа
погр.,
м
5 августа, чт
чт500:00+19всв115386 0.1 101611
03:00+18юв346240 0.2 101653
06:00+19юв355963 0.0 1015107
09:00+24ю4648100 0.1 1014447
12:00+29ююз5737100 0.0 10131888
15:00+30ююз5734100 0.0 10122358
18:00+30юз463575 0.0 10101790
21:00+22св357295 0.4 1011112
6 августа, пт
пт600:00+19вюв51083100 0.0 1010150
03:00+20юв51270100 0.0 1008234
06:00+19ююв4964100 0.0 1008157
09:00+27ю6945100 0.0 1007711
12:00+33ю8102918 0.0 10052090
15:00+35ююз892533 0.0 10042908
18:00+33ююз682847 0.0 10032532
21:00+21ссз477887 0.0 1005221
7 августа, сб
сб700:00+19с3788100 0.8 1006200
03:00+19св3591100 1.0 1006102
06:00+18зсз3695100 0.0 1007193
09:00+21сз6774100 0.0 1008575
12:00+25сз6648100 0.0 1009983
15:00+27сз66324 0.0 10091292
18:00+26сз6635100 0.0 10101416
21:00+19сз495761 0.0 1012177
8 августа, вс
вс800:00+17ссз47620 0.0 1013110
03:00+16с22630 0.0 101413
06:00+16ссз22620 0.0 101526
09:00+23ссз33410 0.0 1015539
12:00+27сз33380 0.0 10151595
15:00+30сз43331 0.0 10151936
18:00+29сз5434100 0.0 10151890
21:00+23сз455335 0.0 101659
9 августа, пн
пн900:00+20с23630 0.0 101725
03:00+18ссв33640 0.0 101837
06:00+18св226612 0.0 101718
09:00+26всв11415 0.0 1018452
12:00+31зсз22280 0.0 10171780
15:00+32сз5424100 0.0 10172043
18:00+32ссз34275 0.0 10161704
21:00+25сз3446100 0.0 101753